Temp
75 68 64 69 72 73 73 71 69 75 82 77 74 74 78 83 84 82 82 82 82 84 88 89 89 89 85 82 82 82 82 82 78 77 81 81 81 82 82 84 83 84 82 81
69 63 73 77 77 74 72 68 68 73 78 76 73 72 77 80 80 82 82 83 84 85 87 88 88 83 82 80 80 79 80 79 79 78 76 80 81 82 84 85 84 84 83 82
65 71 78 74 72 70 70 66 67 67 74 76 72 67 71 78 81 83 84 85 85 84 84 84 82 81 83 82 81 80 79 78 79 80 78 76 78 82 80 79 80 80 84 83
70 77 74 71 68 71 63 73 71 68 65 58 72 55 68 75 77 80 81 82 82 84 85 84 83 83 82 82 82 81 80 78 79 78 76 73 75 75 81 83 86 84 84 84
67 71 70 68 70 74 67 75 71 70 65 63 64 58 65 74 72 76 80 81 82 84 84 82 83 82 83 81 80 80 81 79 76 76 75 75 72 76 79 81 79 81 81 82
69 79 76 73 76 76 76 71 69 68 64 52 60 60 61 68 73 77 81 82 82 82 82 82 83 83 81 82 81 78 76 77 79 76 74 73 72 73 74 75 77 82 85 81
62 66 74 76 68 74 71 63 51 49 50 49 65 61 64 73 77 78 78 80 80 80 80 80 80 80 79 78 79 79 76 73 76 75 75 74 72 72 72 73 76 76 82 84
51 49 65 71 68 64 66 63 52 41 44 51 63 54 62 76 80 80 80 80 79 78 78 78 79 78 79 78 77 77 76 74 76 75 74 74 73 75 75 75 76 78 80 81
53 54 69 71 72 69 62 55 64 52 53 47 54 61 71 75 75 77 77 77 76 76 76 77 79 78 78 76 76 75 74 74 75 75 74 73 73 73 73 73 74 78 78 80
60 48 61 65 69 70 65 68 51 52 35 39 50 54 57 62 67 71 72 73 75 76 77 78 78 77 78 78 76 75 76 73 75 75 73 74 72 72 72 73 73 75 76 77
62 53 50 60 57 57 59 57 57 56 51 39 39 49 67 65 68 68 71 73 74 75 76 77 78 79 79 79 79 75 75 75 74 72 72 71 71 70 69 68 73 75 74 75
62 53 45 52 63 67 63 56 56 40 42 48 45 45 66 67 69 69 71 73 75 76 77 78 79 79 78 77 77 76 74 75 75 74 71 71 70 70 69 66 66 67 65 73
59 48 42 48 58 61 57 60 59 56 54 46 42 48 69 66 66 68 68 72 73 75 76 77 77 76 75 76 76 76 74 73 75 74 72 68 69 68 66 64 64 63 67 73
58 51 47 41 48 49 44 49 53 53 45 47 49 52 60 64 65 69 71 73 74 74 74 73 71 71 71 71 72 74 74 75 73 74 71 67 67 67 66 65 62 62 60 65
52 44 50 51 53 55 54 54 54 50 53 47 52 53 59 64 66 69 72 69 69 70 71 71 69 70 71 69 67 70 70 73 73 69 70 67 68 68 66 65 63 62 58 59
49 41 47 45 52 52 51 55 56 57 57 57 57 56 67 70 70 66 66 66 66 67 68 68 66 66 65 64 64 66 66 68 70 69 69 69 66 69 65 64 64 60 57 57
43 44 42 38 51 49 43 53 55 58 61 59 51 57 63 62 62 61 62 64 64 63 63 62 60 60 59 58 60 60 61 62 63 64 68 69 68 66 67 65 64 60 58 57
42 41 38 36 44 33 54 63 62 58 60 61 57 58 58 60 62 64 66 64 60 59 60 60 60 59 58 58 57 58 59 60 60 60 63 67 69 67 67 64 61 60 58 58
50 42 36 35 37 46 52 56 53 50 51 56 54 57 59 60 60 59 66 62 60 60 60 60 59 56 53 53 53 53 54 55 56 57 58 63 66 66 66 64 60 60 59 58
49 45 35 38 32 31 45 55 62 60 44 55 56 55 55 56 47 53 59 60 59 58 59 56 53 52 51 50 52 49 48 51 52 54 57 59 62 64 62 64 62 61 60 61
37 36 32 33 31 43 53 58 62 41 42 55 56 56 54 50 53 55 57 56 58 56 53 52 50 47 47 48 48 46 48 49 53 55 55 56 57 59 62 61 62 61 59 60
40 37 36 38 34 32 54 55 44 50 55 56 55 55 53 54 55 55 56 55 52 48 46 45 43 43 46 46 45 43 43 49 51 52 55 54 54 56 60 58 60 61 60 58
38 43 38 39 41 50 54 52 57 58 55 55 55 55 55 53 53 55 51 47 44 43 42 43 41 41 43 44 44 41 44 48 50 50 50 52 52 53 54 54 58 58 59 59
51 50 45 48 51 51 52 58 58 58 57 58 58 56 55 52 52 47 43 40 39 40 39 39 38 37 38 42 42 43 45 48 48 49 49 49 52 49 51 52 56 57 57 57
53 53 50 51 48 53 57 57 57 58 59 57 57 55 53 51 44 41 39 38 37 37 37 38 37 37 38 40 42 44 46 47 47 48 48 47 49 50 49 50 55 58 61 58
54 50 44 42 51 51 52 57 60 56 55 55 54 53 53 45 41 39 37 37 35 35 36 36 37 38 39 40 41 43 46 47 46 48 47 49 47 49 50 49 54 50 48 46
MSLP
1002.88 1002.63 1001.67 1001.29 1001.00 1000.62 999.81 999.04 998.57 998.11 997.98 998.32 998.87 999.43 999.52 999.27 999.21 999.35 999.66 1000.04 1000.34 1000.55 1000.79 1001.18 1001.64 1002.00 1002.78 1003.49 1004.01 1004.40 1004.70 1004.90 1005.18 1004.96 1004.67 1004.77 1004.71 1004.84 1004.95 1005.05 1005.14 1005.24 1005.53 1006.18
1002.43 1001.65 1001.25 1000.75 1000.29 1000.06 999.92 999.62 999.36 999.14 998.69 998.82 998.98 999.14 999.38 999.27 998.92 998.88 998.95 999.21 999.51 999.82 1000.09 1000.62 1001.36 1002.41 1003.20 1003.70 1004.07 1004.42 1004.77 1004.86 1004.81 1004.82 1004.77 1004.36 1003.88 1003.90 1003.90 1004.06 1004.29 1004.49 1004.74 1005.16
1001.68 1000.76 1000.33 1000.65 1000.35 1000.09 1000.04 1000.13 1000.07 999.93 999.59 999.29 999.32 999.15 999.18 998.74 998.30 998.33 998.39 998.52 999.02 999.53 999.97 1000.68 1001.73 1002.54 1003.24 1003.78 1004.22 1004.44 1004.56 1004.81 1004.75 1004.58 1004.31 1004.28 1004.00 1003.28 1003.17 1003.52 1003.55 1003.69 1004.00 1004.21
1001.34 1000.71 1000.29 1000.25 1000.55 1000.58 1000.00 1000.28 1000.34 1000.31 1000.30 999.80 999.66 998.51 998.11 997.45 996.96 997.03 997.34 997.92 998.69 999.40 999.95 1000.82 1001.78 1002.64 1003.31 1003.60 1004.08 1004.36 1004.44 1004.58 1004.43 1004.26 1004.29 1004.16 1004.11 1003.66 1003.13 1002.59 1002.23 1002.30 1002.58 1002.95
1001.14 1000.46 1000.12 1000.01 999.99 1000.14 1000.03 1000.21 1000.16 1000.20 1000.17 1000.11 999.87 999.09 998.05 997.28 996.50 996.12 996.18 996.90 997.98 998.77 999.70 1000.67 1001.59 1002.41 1003.05 1003.55 1003.86 1003.91 1003.97 1004.08 1004.25 1004.22 1004.26 1004.02 1003.72 1003.61 1003.18 1002.45 1002.05 1001.39 1001.26 1001.92
1001.43 1000.65 1000.17 999.84 999.85 999.77 1000.11 1000.35 1000.45 1000.71 1000.79 1000.04 999.88 998.97 997.50 996.47 995.58 995.25 995.41 996.35 997.51 998.89 999.86 1000.69 1001.53 1002.35 1003.01 1003.28 1003.43 1003.69 1003.85 1003.80 1003.71 1003.74 1003.75 1003.69 1003.47 1003.30 1003.09 1002.64 1001.91 1001.15 1000.22 1000.40
1002.67 1001.67 1000.66 1000.43 1000.51 1000.12 1000.28 1000.95 1001.00 1000.95 1000.43 999.31 998.87 997.76 996.46 995.91 995.82 996.11 996.49 997.10 998.19 999.29 1000.17 1000.92 1001.60 1002.26 1002.77 1003.11 1003.24 1003.38 1003.54 1003.62 1003.35 1003.28 1003.22 1003.07 1002.99 1002.78 1002.34 1002.12 1001.66 1001.11 999.61 998.93
1003.17 1002.32 1001.49 1001.26 1000.81 1000.81 1000.52 1000.87 1001.14 1000.97 1000.83 999.84 998.98 997.75 996.85 996.33 996.30 996.54 997.20 997.69 998.48 999.67 1000.49 1001.07 1001.52 1002.03 1002.53 1002.66 1002.85 1002.94 1003.00 1002.98 1002.86 1002.91 1002.81 1002.58 1002.40 1001.93 1001.37 1000.84 1000.63 1000.16 998.91 998.41
1003.28 1002.56 1002.05 1001.97 1001.53 1001.51 1001.13 1001.22 1001.96 1002.37 1002.66 1001.85 1000.66 998.79 997.59 996.70 996.43 996.20 997.19 998.12 999.06 999.79 1000.42 1000.82 1001.17 1001.66 1001.83 1002.15 1002.38 1002.56 1002.58 1002.40 1002.20 1002.22 1002.09 1001.93 1001.74 1001.28 1000.51 999.96 999.55 998.80 998.18 997.86
1004.01 1004.10 1003.72 1003.10 1002.48 1001.71 1001.63 1002.17 1003.01 1003.85 1003.85 1002.29 1000.70 999.47 998.27 998.52 998.13 998.08 998.41 998.80 999.40 999.73 1000.01 1000.36 1000.69 1000.94 1001.16 1001.38 1001.69 1001.91 1001.80 1001.74 1001.71 1001.63 1001.60 1001.59 1001.44 1001.04 1000.46 999.13 998.37 997.96 997.83 997.47
1004.63 1005.22 1005.26 1004.62 1003.35 1002.74 1002.52 1002.64 1003.20 1003.91 1004.16 1003.43 1002.13 1000.31 999.17 999.11 999.06 999.09 999.15 999.34 999.51 999.70 999.88 1000.02 1000.02 1000.05 1000.33 1000.70 1000.88 1001.27 1001.32 1001.35 1001.33 1001.50 1001.10 1001.20 1000.95 1000.73 1000.08 999.34 998.20 997.18 996.92 996.92
1005.41 1005.85 1005.52 1004.66 1003.96 1003.14 1003.41 1003.57 1004.12 1004.97 1004.60 1003.78 1002.99 1001.06 1001.03 1000.15 999.97 999.64 999.59 999.66 999.67 999.54 999.53 999.47 999.47 999.42 999.77 1000.24 1000.39 1000.77 1000.82 1001.06 1001.03 1000.97 1001.16 1001.05 1000.81 1000.52 999.93 998.82 998.48 998.10 998.04 997.02
1006.41 1006.63 1006.05 1004.47 1003.38 1003.55 1003.32 1003.67 1003.92 1004.48 1004.49 1003.68 1003.15 1000.83 1000.71 1000.72 1000.86 1000.54 1000.20 999.66 999.59 999.17 999.11 999.33 999.34 999.28 999.71 999.84 999.93 1000.18 1000.33 1000.47 1000.72 1000.61 1000.75 1000.78 1000.43 1000.41 999.94 998.91 998.48 998.66 998.50 996.50
1008.06 1007.63 1007.11 1006.16 1005.10 1005.72 1005.50 1005.24 1004.94 1004.63 1003.95 1003.28 1002.26 1001.17 1000.83 1000.30 999.96 999.65 999.34 998.99 998.75 998.72 998.86 999.50 999.84 1000.04 1000.45 1000.80 1000.44 1000.19 1000.12 1000.04 999.85 1000.19 1000.18 1000.17 1000.21 1000.01 999.67 998.82 999.02 998.55 998.56 997.02
1008.65 1008.42 1007.83 1007.04 1006.36 1005.41 1004.48 1004.06 1004.09 1004.11 1003.57 1002.83 1001.92 1001.22 1000.75 1000.20 999.80 999.53 999.26 999.45 999.61 999.61 999.65 999.82 1000.34 1000.44 1000.30 1000.77 1000.96 1001.37 1000.54 1000.12 999.56 999.57 999.80 999.89 999.66 999.28 999.00 998.80 998.54 998.09 997.30 996.02
1009.82 1009.53 1009.01 1007.81 1006.89 1005.78 1004.34 1003.61 1003.02 1002.41 1002.06 1001.59 1001.17 1000.56 1000.20 999.65 999.57 999.95 1000.04 1000.25 1000.42 1000.41 1000.53 1000.62 1001.03 1001.30 1001.37 1001.52 1001.68 1001.37 1001.10 1000.39 999.73 999.21 999.15 999.20 999.12 998.81 998.51 998.50 998.21 997.65 997.73 997.51
1010.59 1010.22 1009.59 1008.03 1006.61 1005.40 1003.85 1002.57 1002.00 1001.50 1001.29 1001.35 1001.40 1001.25 1001.19 1000.85 1000.98 1001.45 1001.51 1001.40 1001.12 1001.46 1001.78 1002.07 1002.33 1002.49 1002.42 1002.28 1002.26 1001.94 1001.54 1001.23 1000.49 999.93 998.94 998.59 998.35 998.12 997.65 998.13 998.06 997.85 998.27 999.01
1010.81 1011.13 1011.16 1009.32 1007.54 1005.30 1002.81 1001.78 1001.60 1001.47 1001.64 1001.91 1002.48 1002.59 1002.77 1002.53 1002.37 1002.21 1002.20 1001.92 1002.35 1002.72 1002.77 1002.66 1002.64 1002.55 1002.59 1002.48 1002.26 1002.08 1001.75 1000.96 1000.53 1000.01 999.30 998.78 997.69 997.11 996.86 997.33 997.91 997.34 997.93 998.49
1010.54 1011.33 1011.38 1009.76 1007.65 1005.46 1003.74 1003.02 1003.22 1003.27 1002.99 1003.65 1004.08 1003.86 1003.72 1003.47 1003.03 1002.44 1002.34 1002.76 1003.16 1003.13 1002.94 1002.84 1002.85 1002.92 1002.86 1002.65 1002.29 1001.84 1001.03 1000.77 1000.33 999.79 999.39 998.58 997.64 996.83 996.20 996.35 997.31 997.49 997.61 998.01
1010.19 1011.20 1011.78 1010.15 1008.50 1006.43 1005.28 1004.39 1003.92 1003.74 1003.82 1004.88 1005.09 1004.93 1004.65 1004.43 1003.69 1003.05 1003.58 1003.73 1003.46 1003.41 1003.15 1003.14 1003.20 1002.93 1002.50 1001.93 1001.73 1001.15 1000.52 1000.03 999.20 999.10 998.84 998.47 997.72 996.90 996.22 995.71 996.14 996.86 997.35 997.18
1009.94 1010.72 1010.60 1010.34 1009.23 1006.86 1005.79 1004.96 1004.39 1004.62 1005.66 1005.45 1005.60 1005.51 1005.36 1005.23 1005.19 1004.46 1004.19 1003.83 1003.54 1003.38 1003.59 1003.44 1003.11 1002.64 1001.95 1001.43 1001.18 1000.32 999.65 998.89 998.60 998.20 998.08 997.72 997.51 996.91 996.04 995.63 995.36 995.79 996.59 996.91
1008.66 1009.30 1009.13 1009.12 1008.33 1007.23 1006.59 1005.65 1006.16 1006.11 1005.89 1005.92 1005.99 1005.95 1005.71 1005.61 1005.01 1004.64 1004.09 1003.78 1004.01 1004.03 1003.79 1003.53 1002.86 1001.95 1001.17 1000.93 1000.42 999.69 998.95 998.38 997.93 997.49 996.98 996.85 996.79 996.79 996.31 995.46 995.16 995.02 995.63 996.35
1007.82 1008.06 1008.41 1008.81 1007.51 1007.40 1006.87 1006.85 1006.65 1006.48 1006.42 1006.31 1006.28 1006.12 1005.90 1005.52 1005.05 1004.63 1004.51 1004.96 1004.78 1004.49 1003.69 1003.14 1002.35 1001.26 1000.59 1000.16 999.80 998.81 997.96 997.55 996.83 996.44 996.23 995.97 996.34 996.20 996.29 995.64 994.99 994.84 994.83 995.24
1007.21 1007.76 1007.51 1006.99 1007.00 1006.90 1007.01 1006.71 1006.55 1006.56 1006.37 1006.25 1006.33 1006.28 1006.19 1005.73 1005.48 1005.63 1005.71 1005.38 1004.79 1004.14 1003.35 1002.64 1001.78 1000.90 999.96 999.30 998.64 997.95 997.25 996.70 996.14 995.52 995.42 995.33 995.17 995.52 995.93 996.03 995.14 994.63 994.82 995.14
1006.71 1007.06 1006.55 1006.31 1007.25 1006.86 1006.09 1006.56 1006.69 1006.30 1006.34 1006.50 1006.45 1006.46 1006.42 1006.27 1006.56 1006.50 1005.98 1005.36 1004.67 1003.90 1003.01 1002.17 1001.19 1000.15 999.09 998.27 997.50 996.89 996.32 995.78 995.24 994.89 994.68 994.65 994.68 994.82 995.37 995.54 995.33 994.45 994.51 995.11
1006.98 1006.64 1006.81 1006.93 1007.36 1007.31 1007.07 1006.94 1006.52 1006.47 1006.53 1006.66 1006.58 1006.45 1006.76 1007.40 1007.22 1006.85 1006.18 1005.56 1004.72 1003.61 1002.53 1001.45 1000.49 999.52 998.34 997.54 996.76 996.15 995.63 995.08 994.65 994.17 994.23 993.95 994.22 994.41 994.81 995.08 994.93 994.31 994.47 994.83
Wind_Speed
14 11 13 17 18 18 21 20 15 10 13 16 16 15 16 15 14 15 13 13 12 12 12 10 6 4 7 7 5 4 4 1 4 4 5 8 10 9 9 10 12 9 13 16
13 14 16 17 16 18 18 18 14 17 16 13 12 15 15 17 18 16 14 13 12 10 10 8 4 8 7 7 6 6 5 5 5 3 4 5 5 11 11 11 13 15 13 16
16 16 18 16 16 16 14 14 15 17 16 16 14 16 17 20 20 19 18 13 10 9 6 5 7 6 5 3 4 6 5 5 6 5 4 5 6 8 8 10 11 13 16 16
15 17 18 11 13 15 17 16 17 17 15 14 15 15 19 14 17 20 16 12 10 11 7 4 3 2 4 4 5 6 4 6 6 7 7 8 9 10 8 11 11 13 19 19
15 17 16 15 18 14 13 14 15 14 14 15 17 14 14 18 20 18 15 18 13 11 5 3 2 4 6 6 7 5 2 3 6 6 6 8 9 10 10 10 13 14 15 20
19 18 12 10 12 15 15 16 13 14 13 15 18 19 16 17 18 11 8 16 8 6 4 2 2 3 5 8 7 6 7 5 3 6 8 9 10 11 11 13 12 12 11 15
14 19 18 12 12 14 7 8 10 13 14 15 21 19 12 11 12 7 5 7 8 6 2 3 5 6 6 9 8 5 7 9 5 7 8 9 12 12 14 14 13 16 13 13
12 14 16 12 15 15 16 14 11 18 15 16 21 15 14 14 11 5 3 6 3 1 1 6 7 6 10 10 8 8 8 9 7 7 10 7 11 11 12 13 13 14 15 16
9 16 15 13 16 13 13 14 12 10 12 14 14 21 20 17 11 2 0 2 3 4 6 8 9 9 8 9 7 7 10 12 8 7 9 8 10 13 14 16 14 13 17 15
7 11 11 15 18 17 14 10 7 7 6 12 12 14 10 10 14 6 4 2 6 9 9 9 9 11 7 7 5 9 8 7 9 7 6 10 14 13 17 15 17 17 18 17
9 8 9 15 13 13 13 12 11 10 13 9 12 10 12 12 6 8 11 12 12 11 11 12 13 9 8 8 8 8 9 9 8 7 9 9 10 13 13 13 15 17 17 18
2 4 9 18 19 17 17 17 10 5 7 10 11 15 16 12 13 14 9 12 13 14 14 13 12 11 7 8 7 8 5 7 9 6 8 8 9 11 13 12 11 11 22 23
3 1 8 11 16 13 15 16 14 12 14 17 15 12 9 9 16 14 18 20 17 14 15 13 13 9 9 11 8 9 7 6 7 8 7 9 6 10 10 13 9 15 24 21
4 10 13 11 12 3 4 12 16 15 10 13 16 22 19 17 19 18 15 17 15 12 9 6 9 10 12 15 15 12 11 9 6 11 8 7 9 10 10 11 11 13 12 23
2 10 16 17 20 23 23 20 18 20 21 21 19 25 21 21 19 17 16 12 15 15 16 12 10 11 8 8 11 14 14 16 9 6 8 9 9 11 12 13 9 12 15 19
5 4 11 18 21 23 24 23 22 23 22 23 23 23 19 16 13 18 17 17 17 18 19 19 19 18 14 14 15 14 15 16 14 11 11 10 11 13 11 13 9 4 10 21
1 5 7 13 17 15 16 21 22 21 19 13 13 15 19 18 17 16 17 18 19 18 19 19 17 16 15 17 17 18 17 15 17 17 16 14 13 13 11 10 12 4 1 3
4 7 4 7 16 11 8 6 7 10 8 10 15 13 14 16 18 19 20 18 18 19 21 19 17 17 17 17 17 18 18 17 16 18 18 20 15 14 14 8 10 6 3 4
14 7 4 5 7 14 18 6 10 4 10 15 13 15 17 20 23 20 18 21 21 20 20 19 17 18 18 21 21 22 22 23 21 18 21 20 19 18 14 12 9 10 5 8
13 11 4 3 5 4 5 1 5 9 11 14 15 16 19 21 16 14 20 21 22 24 20 19 20 21 23 21 21 21 21 19 17 17 19 21 20 19 15 14 11 10 7 8
5 4 9 7 5 9 6 9 9 8 7 17 16 17 19 17 15 22 23 24 22 19 25 24 21 22 22 18 19 22 21 20 19 19 18 16 17 19 16 14 12 9 8 8
9 4 5 8 7 6 12 10 8 9 12 16 18 19 20 20 22 23 23 23 24 26 23 23 20 21 20 17 16 19 20 18 18 18 18 16 15 16 14 11 12 9 8 8
4 7 4 4 3 4 6 2 4 9 13 15 17 19 20 21 23 24 23 25 21 24 21 20 19 21 18 16 15 19 19 18 16 17 17 16 15 14 13 13 12 9 8 6
3 4 5 3 5 4 6 4 14 14 14 16 18 18 19 22 23 23 20 20 20 20 20 19 19 19 20 17 16 17 17 16 16 15 14 12 14 10 9 8 10 10 7 7
8 5 7 10 13 11 10 16 16 16 17 18 19 19 20 20 19 20 21 21 19 20 19 18 18 17 19 17 16 15 15 15 14 14 11 11 10 10 9 6 11 9 8 9
8 4 3 3 8 8 13 15 16 16 17 18 19 20 19 18 21 20 20 18 19 19 19 17 18 17 18 17 16 14 14 13 11 11 7 6 7 7 7 5 10 9 4 11
Wind_Direction
205 232 224 228 227 246 266 283 298 283 229 195 207 224 243 249 248 246 219 222 225 226 224 214 225 216 44 47 44 33 359 335 311 309 280 211 223 218 220 228 234 214 189 192
246 220 247 244 242 244 244 267 278 286 294 294 273 263 265 262 262 260 260 252 246 246 230 204 122 63 45 21 10 358 329 282 241 242 262 287 242 222 221 221 223 222 209 196
234 246 218 236 265 261 255 269 269 265 276 270 254 258 257 253 251 250 254 250 250 260 264 95 56 38 7 338 343 320 309 301 298 286 268 287 277 261 240 234 224 224 222 206
250 245 263 214 244 262 263 241 250 259 266 266 264 269 258 265 245 225 224 220 234 236 211 118 56 339 327 341 330 293 294 317 296 272 266 243 264 279 278 232 240 212 212 219
262 245 256 260 262 244 263 271 274 269 267 271 263 264 265 259 251 248 228 194 197 215 174 133 213 359 320 334 281 282 259 321 308 284 291 273 263 275 282 267 274 231 210 212
292 280 302 295 289 251 253 270 266 262 266 255 254 254 258 260 260 266 342 169 145 100 49 359 4 318 305 293 327 320 316 261 286 287 300 288 269 261 263 274 282 260 243 208
282 283 290 256 254 282 226 256 258 250 241 248 243 244 254 328 332 351 227 142 108 88 352 324 268 292 314 303 289 303 302 302 293 290 269 284 287 272 253 253 263 266 258 235
275 269 245 255 261 290 260 247 248 276 283 292 310 288 283 310 322 204 205 286 65 75 262 288 291 321 291 286 305 308 303 285 293 308 284 271 281 278 272 251 243 254 253 260
277 272 280 271 291 259 265 263 298 329 306 278 266 283 285 284 342 343 189 246 288 241 254 264 293 277 291 307 298 312 299 279 260 268 288 287 292 277 266 268 259 257 247 253
276 301 307 306 294 291 273 278 270 260 283 273 266 279 277 360 316 18 303 239 256 254 264 271 265 267 279 283 278 269 279 321 310 312 319 324 307 304 306 264 254 255 261 261
274 249 274 293 278 247 261 242 251 255 248 257 279 270 305 0 300 312 294 301 306 307 293 274 263 269 273 279 287 299 308 309 319 327 330 300 302 308 298 306 292 262 263 261
299 277 260 271 283 270 241 271 257 251 255 266 269 269 282 302 336 344 306 298 284 268 272 284 289 285 275 273 275 283 273 287 295 310 306 308 324 313 320 314 321 336 311 273
324 288 276 271 241 241 257 240 258 271 250 264 270 277 292 205 264 271 279 271 266 277 274 291 292 283 265 265 260 266 278 271 298 292 303 299 307 317 329 331 334 322 301 259
338 265 262 271 301 180 265 306 305 288 261 268 260 282 289 294 298 293 296 302 306 317 331 339 329 324 316 322 326 325 297 278 271 277 282 283 300 302 309 320 0 346 332 303
328 269 272 279 288 289 284 270 246 252 262 264 278 275 285 290 290 283 289 357 337 325 323 332 326 309 274 281 289 309 267 281 277 279 282 299 281 265 290 301 342 345 345 335
153 247 260 274 272 272 272 273 271 266 268 272 278 280 278 296 332 353 346 349 335 324 323 335 355 349 343 347 342 335 323 326 319 279 270 276 285 281 272 285 285 37 13 349
260 286 297 270 279 295 263 256 261 264 265 292 304 340 341 347 1 352 329 325 320 340 331 331 327 320 321 323 318 309 307 314 312 301 301 266 260 275 267 272 276 260 258 317
234 277 288 288 284 265 297 270 292 287 292 306 354 343 342 334 329 324 317 318 349 333 321 315 314 314 313 313 312 309 305 301 288 287 287 290 278 259 269 242 266 265 132 226
200 214 262 254 274 291 281 326 8 5 312 38 357 341 330 328 328 310 323 344 327 320 317 312 312 319 311 300 295 285 280 272 269 271 277 280 280 282 267 242 224 254 218 252
189 203 201 280 259 274 13 221 312 325 283 13 344 334 332 330 309 311 329 318 319 312 308 318 309 297 294 291 287 281 277 283 278 276 272 265 271 276 277 257 219 219 215 245
177 190 220 230 241 263 17 329 312 269 334 335 338 332 326 318 310 317 318 307 299 323 320 312 309 298 288 287 292 282 280 273 271 255 264 267 267 276 267 279 232 200 218 222
183 215 204 225 231 246 4 353 345 358 338 342 335 329 324 315 311 309 306 321 327 317 314 305 298 293 291 291 286 283 279 279 278 273 260 252 261 265 287 278 244 213 190 207
225 207 178 213 289 61 248 130 30 353 343 333 326 324 318 317 313 317 325 322 314 308 305 304 299 298 297 294 285 279 278 276 273 270 265 252 245 254 267 288 258 216 199 200
262 59 255 268 68 348 280 14 6 349 337 335 332 330 321 320 324 327 318 313 310 309 310 307 303 299 297 291 284 278 280 279 274 268 267 253 237 234 245 259 255 221 203 201
267 248 279 264 57 309 354 357 345 331 345 332 331 334 328 334 331 321 316 315 313 312 311 307 303 298 293 293 286 282 280 274 271 268 253 270 236 224 229 253 267 223 206 200
352 347 360 339 15 349 342 323 332 343 340 338 337 332 341 341 326 322 316 315 313 311 312 309 305 301 299 297 291 288 284 280 270 267 277 234 226 209 218 210 262 257 143 95